sat.trackr.live / text

‹ back to catalog

STARLINK-35349

NORAD 65835 · 2025-221N

PAYLOAD ACTIVE UNKNOWN

§ Identity

Operator
Country
US
Launch date
2025-09-29
Launch site
AFWTR
Launch vehicle
Mass (kg)
RCS (m²)

Purposes: comms

External: N2YO · Heavens-Above · Gunter

§ Orbital elements

Epoch: 2026-05-25T03:26:22.224192Z

Period
94.10 min
Inclination
53.1571°
Eccentricity
0.0001080
Mean motion
15.30205931 rev/d
Perigee alt
474.5 km
Apogee alt
475.9 km
Semi-major
6,853.3 km
B*
4.1752e-4
RAAN
93.5882°
Arg perigee
81.3644°
Mean anomaly
278.7479°
Rev number
3,643

§ Raw data

STARLINK-353491 65835U 25221N   26145.14331278  .00012029  00000+0  41752-3 0  99912 65835  53.1571  93.5882 0001080  81.3644 278.7479 15.30205931 36430

JSON: /api/v1/satellites/65835 · /tle

For live sub-satellite position, see the globe view (requires WebGL).

§ Visibility from observer

Set your observer location to see the next 7 days of passes ≥ 10°. The values pass through the URL so the page stays shareable.

No JS? Fill the form by hand. The geolocation button needs JavaScript.